www.pogodaiklimat.ru

Погода и климат >> Архив погоды >> Австралия >> Северная территория >> Тиндал


ПОГОДА в Тиндале

  • Прогноз погоды в Тиндале
  • Монитор погоды в Тиндале

АРХИВ ПОГОДЫ в Тиндале

Время (UTC), дата Ветер
(напр.,м/с)
 
Видим.   Явления Облачность Т
(С)
Тd
(С)
f
(%)
Тe
(С)
Тes
(С)
Комфортность P
(гПа)
Po
(гПа)
Тmin
(С)
Tmax
(С)
R
(мм)
R24
(мм)
S
(см)
17 16.01 Ю 2 н/о н/о +25.2 +23.3 89 +34 +34 очень
душно
1006.6 991.5
18 16.01 ЮЗ 2 н/о н/о +25.0 +23.2 90 +33 +33 очень
душно
1006.3 991.3
20 16.01 З 2 н/о н/о +24.9 +23.3 91 +33 +33 очень
душно
1006.3 991.3
21 16.01 З 2 н/о н/о +24.8 +23.2 91 +33 +33 очень
душно
1006.9 991.8
23 16.01 СВ 1 н/о н/о +27.0 +22.8 78 +36 +36 очень
душно
1008.0 992.9
00 17.01 СВ 2 н/о н/о +28.6 +22.8 71 +38 +38 очень
душно
1008.4 993.3
02 17.01 Ю 3 н/о н/о +31.0 +23.6 65 +42 +42 опасность
перегрева
1007.4 992.3
03 17.01 Ю 3 н/о н/о +32.4 +23.4 59 +43 +43 опасность
перегрева
1006.3 991.3
05 17.01 В 3 н/о н/о +34.5 +22.2 49 +43 +43 опасность
перегрева
1004.1 989.1
06 17.01 ЮЗ 4 н/о н/о +35.0 +22.0 47 +44 +44 опасность
перегрева
1002.9 987.9
08 17.01 В 4 н/о н/о +34.8 +20.7 44 +42 +42 опасность
перегрева
1002.0 987.0
09 17.01 В 4 н/о н/о +33.6 +21.7 50 +42 +42 опасность
перегрева
1002.7 987.7
11 17.01 СВ 5 н/о н/о +30.0 +22.4 64 +39 +39 очень
душно
1006.1 991.1
12 17.01 СВ 3 н/о н/о +28.7 +22.2 68 +37 +37 очень
душно
1006.8 991.7
14 17.01 С 4 н/о н/о +27.1 +22.1 74 +35 +35 очень
душно
1008.1 993.0
15 17.01 С 3 н/о н/о +26.5 +22.1 77 +34 +34 очень
душно
1007.6 992.5
17 17.01 СЗ 2 н/о н/о +25.3 +22.0 82 +33 +33 очень
душно
1005.9 990.9
18 17.01 З 2 н/о н/о +24.9 +22.0 84 +32 +32 очень
душно
1005.3 990.3
20 17.01 ЮЗ 2 н/о н/о +24.3 +22.7 91 +32 +32 очень
душно
1005.1 990.1
21 17.01 штиль 0 н/о н/о +24.1 +22.7 92 +32 +32 очень
душно
1005.7 990.7
23 17.01 Ю 3 н/о н/о +26.8 +22.2 76 +35 +35 очень
душно
1006.7 991.6
00 18.01 Ю 1 н/о н/о +28.5 +22.0 68 +37 +37 очень
душно
1007.1 992.1
02 18.01 В 1 н/о н/о +30.9 +23.0 63 +41 +41 опасность
перегрева
1007.1 992.1
03 18.01 ЮВ 2 н/о н/о +32.0 +22.4 57 +41 +41 опасность
перегрева
1006.8 991.7
05 18.01 В 3 н/о н/о +34.9 +22.6 49 +44 +44 опасность
перегрева
1004.6 989.6
06 18.01 С 3 н/о н/о +33.7 +24.0 57 +46 +46 опасность
перегрева
1003.3 988.3
08 18.01 СЗ 3 н/о н/о +30.2 +23.1 66 +40 +40 очень
душно
1003.5 988.5
09 18.01 С 2 н/о н/о +29.3 +22.0 65 +38 +38 очень
душно
1004.6 989.6
11 18.01 Ю 3 н/о н/о +25.0 +23.2 90 +33 +33 очень
душно
1007.6 992.5
12 18.01 штиль 0 н/о н/о +25.5 +23.4 88 +34 +34 очень
душно
1007.7 992.6
14 18.01 штиль 0 н/о н/о +25.4 +23.8 91 +35 +35 очень
душно
1009.4 994.3
15 18.01 С 2 н/о н/о +25.9 +23.8 88 +35 +35 очень
душно
1008.3 993.2
17 18.01 ЮВ 2 н/о н/о +25.2 +24.0 93 +35 +35 очень
душно
1006.5 991.4
18 18.01 Ю 1 н/о н/о +25.4 +24.0 92 +35 +35 очень
душно
1006.2 991.2
20 18.01 штиль 0 н/о н/о +25.1 +24.1 94 +35 +35 очень
душно
1006.5 991.4
21 18.01 Ю 2 н/о н/о +25.2 +24.2 94 +35 +35 очень
душно
1007.2 992.1
23 18.01 Ю 3 н/о н/о +27.4 +24.5 84 +39 +39 очень
душно
1008.8 993.7
00 19.01 Ю 2 н/о н/о +28.3 +24.3 79 +40 +40 очень
душно
1009.0 993.9
02 19.01 Ю 2 н/о н/о +31.2 +23.8 65 +43 +43 опасность
перегрева
1008.6 993.5
03 19.01 ЮВ 2 н/о н/о +32.3 +24.9 65 +46 +46 опасность
перегрева
1008.0 992.9
05 19.01 В 3 н/о н/о +33.5 +22.9 54 +44 +44 опасность
перегрева
1006.1 991.1
06 19.01 В 4 н/о н/о +34.2 +23.9 55 +46 +46 опасность
перегрева
1005.2 990.2
08 19.01 В 5 н/о н/о +33.8 +22.6 52 +43 +43 опасность
перегрева
1004.5 989.5
09 19.01 В 4 н/о н/о +33.2 +22.6 54 +43 +43 опасность
перегрева
1005.2 990.2
11 19.01 В 6 н/о н/о +27.7 +21.5 69 +35 +35 очень
душно
1007.9 992.8
12 19.01 В 3 н/о н/о +27.1 +22.1 74 +35 +35 очень
душно
1008.2 993.1
14 19.01 Ю 2 н/о н/о +26.0 +23.9 88 +36 +36 очень
душно
1007.9 992.8
15 19.01 ЮВ 2 н/о н/о +25.7 +23.9 90 +35 +35 очень
душно
1007.4 992.3
17 19.01 ЮВ 1 н/о н/о +25.5 +23.9 91 +35 +35 очень
душно
1006.5 991.4
18 19.01 штиль 0 н/о н/о +25.2 +23.8 92 +34 +34 очень
душно
1006.1 991.1
20 19.01 штиль 0 н/о н/о +24.3 +23.1 93 +32 +32 очень
душно
1005.8 990.8
21 19.01 штиль 0 н/о н/о +24.2 +23.0 93 +32 +32 очень
душно
1006.8 991.7
23 19.01 штиль 0 н/о н/о +27.2 +23.2 79 +37 +37 очень
душно
1008.5 993.4
00 20.01 ЮВ 1 н/о н/о +29.3 +24.0 73 +41 +41 опасность
перегрева
1008.8 993.7
02 20.01 СВ 3 н/о н/о +31.7 +23.2 61 +42 +42 опасность
перегрева
1008.4 993.3
03 20.01 В 4 н/о н/о +33.0 +23.6 58 +44 +44 опасность
перегрева
1007.5 992.4
05 20.01 В 5 н/о н/о +34.0 +23.1 53 +44 +44 опасность
перегрева
1004.7 989.7
06 20.01 В 4 н/о н/о +34.2 +22.6 51 +44 +44 опасность
перегрева
1004.2 989.2
08 20.01 В 4 н/о н/о +33.6 +22.7 53 +43 +43 опасность
перегрева
1004.5 989.5
09 20.01 В 5 н/о н/о +28.9 +23.3 72 +39 +39 очень
душно
1005.3 990.3
11 20.01 В 3 н/о н/о +28.2 +22.4 71 +37 +37 очень
душно
1007.0 991.9
12 20.01 СВ 5 н/о н/о +28.2 +22.9 73 +38 +38 очень
душно
1007.5 992.4
14 20.01 В 3 н/о н/о +27.3 +23.1 78 +37 +37 очень
душно
1008.4 993.3
15 20.01 С 1 н/о н/о +27.3 +23.7 81 +37 +37 очень
душно
1007.4 992.3
17 20.01 ЮВ 3 н/о н/о +25.7 +23.9 90 +35 +35 очень
душно
1005.5 990.5
18 20.01 ЮВ 2 н/о н/о +25.7 +23.9 90 +35 +35 очень
душно
1005.1 990.1
20 20.01 В 3 н/о н/о +25.3 +23.9 92 +35 +35 очень
душно
1005.5 990.5
21 20.01 В 2 н/о н/о +25.5 +24.1 92 +35 +35 очень
душно
1005.7 990.7
23 20.01 СВ 2 н/о н/о +29.2 +23.9 73 +40 +40 очень
душно
1006.8 991.7
00 21.01 СВ 2 н/о н/о +30.7 +24.1 68 +43 +43 опасность
перегрева
1007.7 992.6
02 21.01 СВ 3 н/о н/о +33.5 +23.5 56 +44 +44 опасность
перегрева
1007.1 992.1
03 21.01 В 3 н/о н/о +34.1 +22.8 52 +44 +44 опасность
перегрева
1006.3 991.3
05 21.01 С 3 н/о н/о +34.6 +22.0 48 +43 +43 опасность
перегрева
1004.1 989.1
06 21.01 В 5 н/о н/о +36.0 +20.3 40 +42 +42 опасность
перегрева
1003.3 988.3
08 21.01 В 5 н/о н/о +35.2 +21.5 45 +43 +43 опасность
перегрева
1002.9 987.9
09 21.01 В 7 н/о н/о +34.2 +20.6 45 +41 +41 опасность
перегрева
1003.7 988.7
11 21.01 ЮВ 3 н/о н/о +29.4 +22.1 65 +38 +38 очень
душно
1005.3 990.3
12 21.01 В 6 н/о н/о +30.1 +22.3 63 +39 +39 очень
душно
1007.0 991.9
14 21.01 СВ 3 н/о н/о +28.7 +21.5 65 +37 +37 очень
душно
1007.9 992.8
15 21.01 В 3 н/о н/о +27.5 +21.5 70 +35 +35 очень
душно
1007.6 992.5
17 21.01 В 3 н/о н/о +26.2 +22.5 80 +34 +34 очень
душно
1006.5 991.4
18 21.01 штиль 0 н/о н/о +25.5 +22.8 85 +34 +34 очень
душно
1006.0 991.0
20 21.01 СВ 2 н/о н/о +25.5 +22.6 84 +34 +34 очень
душно
1005.8 990.8
21 21.01 штиль 0 н/о н/о +25.0 +22.5 86 +33 +33 очень
душно
1006.0 991.0
23 21.01 СВ 3 н/о н/о +28.1 +22.8 73 +37 +37 очень
душно
1007.1 992.1
00 22.01 СВ 4 н/о н/о +29.9 +22.6 65 +39 +39 очень
душно
1007.5 992.4
02 22.01 СВ 5 н/о н/о +33.9 +22.3 51 +43 +43 опасность
перегрева
1006.9 991.8
03 22.01 С 4 н/о н/о +33.7 +22.1 51 +43 +43 опасность
перегрева
1005.9 990.9
05 22.01 СВ 3 н/о н/о +35.0 +20.9 44 +42 +42 опасность
перегрева
1004.1 989.1
06 22.01 СВ 3 н/о н/о +36.0 +19.0 37 +41 +41 опасность
перегрева
1003.7 988.7
08 22.01 ЮВ 6 н/о н/о +34.4 +20.7 45 +41 +41 опасность
перегрева
1003.4 988.4
09 22.01 В 5 н/о н/о +33.6 +20.0 45 +40 +40 очень
душно
1004.1 989.1
11 22.01 С 5 н/о н/о +29.0 +22.7 69 +38 +38 очень
душно
1007.0 991.9
12 22.01 С 3 н/о н/о +27.7 +22.9 75 +37 +37 очень
душно
1007.5 992.4
14 22.01 СВ 3 н/о н/о +27.2 +22.6 76 +36 +36 очень
душно
1007.6 992.5
15 22.01 В 2 н/о н/о +26.4 +22.7 80 +35 +35 очень
душно
1007.4 992.3
17 22.01 В 3 н/о н/о +26.0 +22.7 82 +34 +34 очень
душно
1006.6 991.5
18 22.01 В 2 н/о н/о +25.6 +22.9 85 +34 +34 очень
душно
1006.7 991.6
20 22.01 штиль 0 н/о н/о +25.7 +23.0 85 +34 +34 очень
душно
1006.8 991.7
21 22.01 штиль 0 н/о н/о +25.0 +23.1 89 +33 +33 очень
душно
1007.2 992.1
23 22.01 С 1 н/о н/о +28.0 +22.9 74 +37 +37 очень
душно
1008.0 992.9
00 23.01 СЗ 3 н/о н/о +30.0 +23.7 69 +41 +41 опасность
перегрева
1008.0 992.9
02 23.01 СЗ 4 н/о н/о +32.9 +22.7 55 +43 +43 опасность
перегрева
1007.0 991.9
03 23.01 З 3 н/о н/о +33.7 +22.8 53 +44 +44 опасность
перегрева
1006.1 991.1
05 23.01 СЗ 5 н/о н/о +33.6 +23.3 55 +44 +44 опасность
перегрева
1004.3 989.3
06 23.01 СЗ 5 н/о н/о +26.3 +24.3 89 +37 +37 очень
душно
1004.4 989.4
08 23.01 ЮЗ 2 н/о н/о +26.3 +24.2 88 +37 +37 очень
душно
1003.8 988.8
09 23.01 СЗ 4 н/о н/о +26.1 +23.8 87 +36 +36 очень
душно
1004.7 989.7
11 23.01 З 2 н/о н/о +26.3 +24.5 90 +37 +37 очень
душно
1006.6 991.5
12 23.01 С 2 н/о н/о +26.2 +24.6 91 +37 +37 очень
душно
1007.0 991.9
14 23.01 СЗ 3 н/о н/о +26.2 +24.6 91 +37 +37 очень
душно
1006.6 991.5

 

Местоположение метеостанции Тиндал (Северная территория, Австралия): широта -14.51 долгота 132.36 высота над уровнем моря 135 м.

В архиве по умолчанию представлена погода в Тиндале за последнюю неделю. Архивные данные за месяц целиком и за предыдущие месяцы, начиная с января 2011 года, Вы можете получить, выбрав интересующий диапазон дат из раскрывающегося списка и нажав кнопку "Ввод!".


*Определитесь, кто Вы:
робот инопланетянин человек

Внимание! Время в таблицах - всемирное. Для получения местного времени необходимо прибавить поправку, которая равна 9.5 ч.

Смотрите также архив погоды в соседних городах и на ближайших метеорологических станциях:

Погода на Базе ВВС Delamere Weapons Range (Северная территория, Австралия) (146 км)
Погода на Маяке Кейп-Дон (Северная территория, Австралия) (148 км)
Погода на Центральном плато Арнем (Северная территория, Австралия) (153 км)
Погода в Манбуллу Ксиро (Северная территория, Австралия) (175 км)
Погода в Джаберу (Северная территория, Австралия) (213 км)
Погода в Батчелоре (Северная территория, Австралия) (218 км)
Погода в Дейли Уотерс (Северная территория, Австралия) (222 км)
Погода в Булман Уимол (Северная территория, Австралия) (232 км)
Погода в Милд Пойнт (Северная территория, Австралия) (241 км)
Погода в Виктория-Ривер (Северная территория, Австралия) (255 км)

Пояснения к столбцам:

Ветер - указаны скорость ветра в м/с - средняя за 10 мин, порывы в срок и между сроками (в фигурных скобках) и направление, откуда дует ветер: С - северный, СВ - северо-восточный, В - восточный, ЮВ - юго-восточный, Ю - южный, ЮЗ - юго-западный, З - западный, СЗ - северо-западный.
Видимость - горизонтальная дальность видимости в метрах или километрах. При видимости от 1 до 10 км при отсутствии осадков обычно наблюдается дымка, при ухудшении видимости до 1 км и менее - туман. В сухую погоду видимость может ухудшаться дымом, пылью или мглою.
Явления - указаны атмосферные явления, наблюдавшиеся в срок или в последний час перед сроком; фигурными скобками обозначены явления, наблюдавшиеся между сроками (за 1-3 часа до срока); квадратными скобками обозначены град или гололедные отложения с указанием их диаметра в мм.
Облачность - указаны через наклонную черту общая и нижняя облачность в баллах и высота нижней границы облаков в метрах; квадратными скобками обозначены формы облаков: Ci - перистые, Cs - перисто-слоистые, Cc - перисто-кучевые, Ac - высококучевые, As - высокослоистые, Sc - слоисто-кучевые, Ns - слоисто-дождевые, Cu - кучевые, Cb - кучево-дождевые. Подробнее классификацию облаков см. в Атласе облаков (PDF).
T - Температура воздуха - температура, измеренная на высоте 2 м над землей.
Td - Температура точки росы - температура, при понижении до которой содержащийся в воздухе водяной пар достигнет насыщения.
f - Относительная влажность воздуха - влажноcть воздуха, измеренная на высоте 2 м над землей.
Te - Эффективная температура - температура, которую ощущает одетый по сезону человек в тени. Характеристика душности погоды. При расчете учитывается влияние влажности воздуха и скорости ветра на теплоощущения человека.
Tes - Эффективная температура на солнце - температура, которую ощущает человек, с поправкой на солнечный нагрев. Характеристика знойности погоды. Зависит от высоты солнца над горизонтом, облачности и скорости ветра. Ночью, в пасмурную погоду, а также при ветре 12 м/с и более поправка равна нулю.
P - Атмосферное давление - приведенное к уровню моря атмосферное давление.
Po - Атмосферное давление - измеренное на уровне метеостанции атмосферное давление.
Tmin - Минимальная температура - минимум температуры воздуха на высоте 2 м над землей.
Tmax - Максимальная температура - максимум температуры воздуха на высоте 2 м над землей.
R - Количество осадков - Количество выпавших осадков за период времени, мм. При наведении курсора мыши на число - период времени, за который выпало указанное количество осадков.
R24 - Количество осадков - Количество выпавших осадков за 24 часа, мм.
S - Снежный покров - Высота снежного покрова, см. При наведении курсора мыши на число - состояние снежного покрова и степень покрытия местности в баллах.